This is the latest recevied weather packets stored in our database for station/object KN6DHD. If no packets are shown the sender has not sent any weather packets the latest 10 day(s).
| Time | Temp. | Humidity | Pressure | Rain* | Wind** | Luminosity | Snow |
|---|---|---|---|---|---|---|---|
| 1777134928 | 13.89° C | 84% | 1012 hPa | 0 mm | - | 185 W/m² | - |
| 1777134620 | 13.33° C | 84% | 1012 hPa | 0 mm | - | 127 W/m² | - |
| 1777134316 | 13.33° C | 84% | 1011.8 hPa | 0 mm | - | 132 W/m² | - |
| 1777134013 | 13.33° C | 84% | 1011.6 hPa | 0 mm | - | 144 W/m² | - |
| 1777133710 | 13.33° C | 84% | 1011.7 hPa | 0 mm | - | 149 W/m² | - |
| 1777133408 | 13.33° C | 85% | 1011.7 hPa | 0 mm | - | 140 W/m² | - |
| 1777133102 | 13.33° C | 85% | 1011.7 hPa | 0 mm | - | 142 W/m² | - |
| 1777132798 | 13.33° C | 85% | 1011.7 hPa | 0 mm | - | 139 W/m² | - |
| 1777132495 | 12.78° C | 86% | 1011.8 hPa | 0 mm | - | 138 W/m² | - |
| 1777132193 | 12.78° C | 86% | 1011.5 hPa | 0 mm | - | 131 W/m² | - |
| 1777131888 | 12.78° C | 87% | 1011.8 hPa | 0 mm | - | 121 W/m² | - |
| 1777131587 | 12.78° C | 87% | 1011.8 hPa | 0 mm | - | 116 W/m² | - |
| 1777131279 | 12.22° C | 88% | 1011.7 hPa | 0 mm | - | 115 W/m² | - |
| 1777130974 | 12.22° C | 89% | 1011.6 hPa | 0 mm | - | 107 W/m² | - |
| 1777130671 | 12.22° C | 89% | 1011.8 hPa | 0 mm | - | 106 W/m² | - |
| 1777130367 | 11.67° C | 89% | 1011.6 hPa | 0 mm | - | 101 W/m² | - |
| 1777130064 | 11.67° C | 90% | 1011.7 hPa | 0 mm | - | 92 W/m² | - |
| 1777129759 | 11.67° C | 90% | 1011.7 hPa | 0 mm | - | 81 W/m² | - |
| 1777129454 | 11.67° C | 90% | 1011.7 hPa | 0 mm | - | 78 W/m² | - |
| 1777129153 | 11.11° C | 90% | 1011.6 hPa | 0 mm | - | 78 W/m² | - |
| 1777128849 | 11.11° C | 91% | 1011.8 hPa | 0 mm | - | 76 W/m² | - |
| 1777128546 | 11.11° C | 91% | 1011.7 hPa | 0 mm | - | 69 W/m² | - |
| 1777128243 | 11.11° C | 91% | 1011.7 hPa | 0 mm | - | 62 W/m² | - |
| 1777127941 | 10.56° C | 91% | 1011.7 hPa | 0 mm | - | 57 W/m² | - |
| 1777127638 | 10.56° C | 91% | 1011.6 hPa | 0 mm | - | 55 W/m² | - |
* Rain latest hour (hover to see other rain measurements)
** Current wind speed in m/s (hover to see current wind gust speed)